• In Russia
  • List of Countries
  • For 7 days
  • Water Temperature
  • Weather Map
  • Weather Widgets
  • user-avatar
    Login

    Hourly Weather Villavicencio

    Today, 22 January, Wednesday

    Time Temperature Precipitation Wind Pressure Humidity
    00:00 +26°C° 0 mm 2 mps 717 mmHg 77%
    01:00 +26°C° 0 mm 1 mps 716 mmHg 77%
    02:00 +25°C° 0 mm 1 mps 716 mmHg 77%
    03:00 +25°C° 0 mm 1 mps 716 mmHg 77%
    04:00 +25°C° 0 mm 1 mps 716 mmHg 76%
    05:00 +25°C° 0 mm 1 mps 716 mmHg 76%
    06:00 +26°C° 0 mm 1 mps 717 mmHg 75%
    07:00 +26°C° 0 mm 1 mps 717 mmHg 74%
    08:00 +27°C° 0 mm 1 mps 718 mmHg 70%
    09:00 +29°C° 0 mm 1 mps 718 mmHg 66%
    10:00 +30°C° 0 mm 1 mps 719 mmHg 62%
    11:00 +31°C° 0.2 mm 1 mps 718 mmHg 61%
    12:00 +32°C° 0.2 mm 1 mps 717 mmHg 59%
    13:00 +33°C° 0.2 mm 1 mps 717 mmHg 58%
    14:00 +32°C° 0.2 mm 1 mps 716 mmHg 59%
    15:00 +32°C° 0.2 mm 1 mps 716 mmHg 60%
    16:00 +30°C° 0.2 mm 0 mps 715 mmHg 62%
    17:00 +30°C° 0.7 mm 1 mps 715 mmHg 66%
    18:00 +29°C° 0.7 mm 1 mps 716 mmHg 71%
    19:00 +28°C° 0.7 mm 2 mps 716 mmHg 76%
    20:00 +27°C° 0.1 mm 2 mps 716 mmHg 76%
    21:00 +27°C° 0.1 mm 2 mps 717 mmHg 76%
    22:00 +26°C° 0.1 mm 2 mps 717 mmHg 76%
    23:00 +26°C° 0 mm 2 mps 717 mmHg 75%

    Tomorrow, 23 January, Thursday

    Time Temperature Precipitation Wind Pressure Humidity
    00:00 +26°C° 0 mm 2 mps 717 mmHg 75%
    01:00 +26°C° 0 mm 2 mps 717 mmHg 74%
    02:00 +26°C° 0 mm 2 mps 716 mmHg 73%
    03:00 +26°C° 0 mm 2 mps 716 mmHg 72%
    04:00 +26°C° 0 mm 2 mps 716 mmHg 71%
    05:00 +26°C° 0 mm 2 mps 716 mmHg 71%
    06:00 +26°C° 0 mm 2 mps 717 mmHg 70%
    07:00 +26°C° 0 mm 2 mps 717 mmHg 70%
    08:00 +28°C° 0 mm 2 mps 718 mmHg 65%
    09:00 +30°C° 0 mm 2 mps 718 mmHg 60%
    10:00 +32°C° 0 mm 2 mps 719 mmHg 55%
    11:00 +32°C° 0.4 mm 2 mps 718 mmHg 57%
    12:00 +32°C° 0.4 mm 2 mps 717 mmHg 60%
    13:00 +32°C° 0.4 mm 2 mps 716 mmHg 62%
    14:00 +32°C° 0.5 mm 1 mps 715 mmHg 64%
    15:00 +32°C° 0.5 mm 1 mps 715 mmHg 65%
    16:00 +31°C° 0.5 mm 1 mps 714 mmHg 67%
    17:00 +30°C° 0.7 mm 1 mps 714 mmHg 71%
    18:00 +29°C° 0.7 mm 1 mps 715 mmHg 75%
    19:00 +27°C° 0.7 mm 2 mps 715 mmHg 79%
    20:00 +27°C° 1.5 mm 2 mps 716 mmHg 82%
    21:00 +26°C° 1.5 mm 2 mps 716 mmHg 84%
    22:00 +26°C° 1.5 mm 2 mps 717 mmHg 86%
    23:00 +26°C° 1.5 mm 2 mps 717 mmHg 86%

    Day after tomorrow, 24 January, Friday

    Time Temperature Precipitation Wind Pressure Humidity
    00:00 +26°C° 1.5 mm 2 mps 716 mmHg 86%
    01:00 +25°C° 1.5 mm 2 mps 716 mmHg 87%
    02:00 +25°C° 0.4 mm 2 mps 716 mmHg 86%
    03:00 +25°C° 0.4 mm 2 mps 716 mmHg 86%
    04:00 +25°C° 0.4 mm 2 mps 716 mmHg 85%
    05:00 +25°C° 0.1 mm 1 mps 716 mmHg 84%
    06:00 +25°C° 0.1 mm 1 mps 717 mmHg 83%
    07:00 +25°C° 0.1 mm 1 mps 718 mmHg 82%
    08:00 +27°C° 0 mm 1 mps 718 mmHg 76%
    09:00 +29°C° 0 mm 1 mps 718 mmHg 70%
    10:00 +31°C° 0 mm 1 mps 719 mmHg 64%
    11:00 +32°C° 0.3 mm 1 mps 718 mmHg 62%
    12:00 +33°C° 0.3 mm 1 mps 717 mmHg 59%
    13:00 +35°C° 0.3 mm 2 mps 716 mmHg 57%
    14:00 +34°C° 0.8 mm 2 mps 716 mmHg 63%
    15:00 +32°C° 0.8 mm 1 mps 715 mmHg 68%
    16:00 +31°C° 0.8 mm 1 mps 714 mmHg 74%
    17:00 +30°C° 1.2 mm 1 mps 715 mmHg 77%
    18:00 +28°C° 1.2 mm 2 mps 715 mmHg 79%
    19:00 +27°C° 1.2 mm 2 mps 716 mmHg 82%
    20:00 +27°C° 2.1 mm 2 mps 716 mmHg 84%
    21:00 +26°C° 2.1 mm 2 mps 717 mmHg 85%
    22:00 +26°C° 2.1 mm 2 mps 718 mmHg 86%
    23:00 +26°C° 0.5 mm 2 mps 717 mmHg 85%

    25 January, Saturday

    Time Temperature Precipitation Wind Pressure Humidity
    00:00 +26°C° 0.5 mm 2 mps 717 mmHg 84%
    01:00 +26°C° 0.5 mm 1 mps 717 mmHg 83%
    02:00 +26°C° 0.4 mm 1 mps 717 mmHg 82%
    03:00 +26°C° 0.4 mm 1 mps 717 mmHg 82%
    04:00 +26°C° 0.4 mm 1 mps 716 mmHg 81%
    05:00 +26°C° 0.2 mm 1 mps 717 mmHg 81%
    06:00 +26°C° 0.2 mm 1 mps 718 mmHg 81%
    07:00 +26°C° 0.2 mm 1 mps 718 mmHg 81%
    08:00 +27°C° 0.1 mm 1 mps 718 mmHg 76%
    09:00 +29°C° 0.1 mm 1 mps 719 mmHg 71%
    10:00 +30°C° 0.1 mm 1 mps 719 mmHg 66%
    11:00 +31°C° 0.1 mm 1 mps 718 mmHg 65%
    12:00 +31°C° 0.1 mm 2 mps 718 mmHg 65%
    13:00 +31°C° 0.1 mm 2 mps 717 mmHg 64%
    14:00 +31°C° 0.2 mm 2 mps 716 mmHg 65%
    15:00 +31°C° 0.2 mm 1 mps 716 mmHg 66%
    16:00 +31°C° 0.2 mm 1 mps 716 mmHg 67%
    17:00 +29°C° 0.1 mm 1 mps 716 mmHg 71%
    18:00 +28°C° 0.1 mm 2 mps 716 mmHg 74%
    19:00 +27°C° 0.1 mm 2 mps 716 mmHg 77%
    20:00 +27°C° 0 mm 2 mps 717 mmHg 76%
    21:00 +27°C° 0 mm 1 mps 717 mmHg 75%
    22:00 +27°C° 0 mm 1 mps 718 mmHg 74%
    23:00 +26°C° 0 mm 1 mps 718 mmHg 75%

    26 January, Sunday

    Time Temperature Precipitation Wind Pressure Humidity
    00:00 +26°C° 0 mm 1 mps 717 mmHg 76%
    01:00 +26°C° 0 mm 1 mps 717 mmHg 76%
    02:00 +26°C° 0 mm 1 mps 717 mmHg 76%
    03:00 +26°C° 0 mm 1 mps 717 mmHg 75%
    04:00 +26°C° 0 mm 1 mps 717 mmHg 75%
    05:00 +26°C° 0 mm 1 mps 717 mmHg 75%
    06:00 +26°C° 0 mm 1 mps 718 mmHg 75%
    07:00 +26°C° 0 mm 1 mps 718 mmHg 75%
    08:00 +27°C° 0 mm 1 mps 719 mmHg 70%
    09:00 +29°C° 0 mm 1 mps 719 mmHg 65%
    10:00 +30°C° 0 mm 1 mps 719 mmHg 60%
    11:00 +31°C° 0.1 mm 1 mps 719 mmHg 59%
    12:00 +32°C° 0.1 mm 1 mps 718 mmHg 57%
    13:00 +32°C° 0.1 mm 1 mps 717 mmHg 56%
    14:00 +32°C° 0.1 mm 1 mps 717 mmHg 56%
    15:00 +32°C° 0.1 mm 1 mps 716 mmHg 56%
    16:00 +32°C° 0.1 mm 1 mps 715 mmHg 57%
    17:00 +30°C° 0 mm 1 mps 716 mmHg 62%
    18:00 +29°C° 0 mm 1 mps 716 mmHg 67%
    19:00 +27°C° 0 mm 2 mps 717 mmHg 72%
    20:00 +27°C° 0 mm 2 mps 717 mmHg 72%
    21:00 +27°C° 0 mm 2 mps 718 mmHg 72%
    22:00 +27°C° 0 mm 2 mps 718 mmHg 71%
    23:00 +27°C° 0.1 mm 1 mps 718 mmHg 71%

    27 January, Monday

    Time Temperature Precipitation Wind Pressure Humidity
    00:00 +27°C° 0.1 mm 1 mps 718 mmHg 71%
    01:00 +27°C° 0.1 mm 1 mps 717 mmHg 70%
    02:00 +27°C° 0.1 mm 1 mps 717 mmHg 71%
    03:00 +27°C° 0.1 mm 1 mps 717 mmHg 71%
    04:00 +26°C° 0.1 mm 1 mps 717 mmHg 72%
    05:00 +26°C° 0 mm 1 mps 717 mmHg 73%
    06:00 +26°C° 0 mm 1 mps 718 mmHg 74%
    07:00 +27°C° 0 mm 1 mps 719 mmHg 75%
    08:00 +27°C° 0.2 mm 1 mps 719 mmHg 73%
    09:00 +28°C° 0.2 mm 1 mps 719 mmHg 72%
    10:00 +28°C° 0.2 mm 1 mps 719 mmHg 71%
    11:00 +30°C° 0.1 mm 1 mps 719 mmHg 66%
    12:00 +31°C° 0.1 mm 1 mps 718 mmHg 60%
    13:00 +33°C° 0.1 mm 1 mps 718 mmHg 55%
    14:00 +32°C° 0.1 mm 1 mps 717 mmHg 56%
    15:00 +32°C° 0.1 mm 1 mps 716 mmHg 58%
    16:00 +32°C° 0.1 mm 1 mps 715 mmHg 59%
    17:00 +30°C° 0.1 mm 2 mps 716 mmHg 64%
    18:00 +29°C° 0.1 mm 2 mps 716 mmHg 69%
    19:00 +27°C° 0.1 mm 2 mps 716 mmHg 74%
    20:00 +27°C° 0 mm 2 mps 717 mmHg 74%
    21:00 +27°C° 0 mm 2 mps 717 mmHg 73%
    22:00 +27°C° 0 mm 1 mps 718 mmHg 73%
    23:00 +26°C° 0 mm 1 mps 718 mmHg 72%
    Show more